Temperature
7 8 9 9 10 11 11 12 12 12 12 12 12 13 13 13 12 13 13 12 12 12 12 12 12 12 12 12 12 12 11 11 11 11 11 11 11 11 11 11 11 11 11 10
7 8 9 10 10 10 10 10 11 11 11 11 12 12 13 13 12 12 12 12 12 12 11 11 12 12 12 12 12 12 11 11 11 11 11 11 11 11 10 10 10 10 10 10
7 8 9 9 9 9 9 10 10 10 10 10 11 12 12 12 12 11 11 11 11 11 11 11 11 12 12 12 12 12 11 11 11 11 11 11 10 10 10 10 10 10 10 9
7 8 8 8 8 9 9 10 10 10 10 10 10 11 13 12 12 12 11 11 10 10 10 10 11 11 12 12 12 11 11 11 11 11 11 11 10 10 10 10 10 10 9 9
6 7 7 7 8 8 8 9 9 9 10 9 10 9 12 11 12 12 12 11 10 9 10 10 11 11 11 11 11 11 11 11 11 11 11 10 10 10 10 10 9 9 9 9
6 7 7 8 8 8 8 8 8 8 9 8 10 10 12 12 12 12 11 10 9 9 9 9 10 10 11 10 11 11 10 10 10 10 10 10 10 10 9 9 9 9 9 9
5 6 6 7 7 7 7 7 7 7 7 9 10 10 12 11 10 10 10 9 8 8 8 8 9 10 10 10 10 10 10 10 10 10 10 10 10 9 9 9 9 9 9 8
5 5 6 6 7 7 7 8 8 8 9 10 9 10 11 10 9 8 8 8 7 7 7 7 8 9 9 10 10 10 10 10 10 10 9 9 9 9 9 9 8 8 8 8
4 5 5 5 6 7 7 7 8 7 8 8 9 10 10 9 9 8 8 7 7 6 6 7 7 8 9 9 9 10 9 9 9 9 9 9 9 9 8 8 8 8 8 8
4 3 4 5 6 6 7 7 6 7 7 8 9 10 10 9 9 8 8 7 6 6 6 6 7 8 8 9 9 9 9 9 9 9 8 9 8 8 8 8 8 7 7 7
3 3 3 4 4 5 5 5 6 7 7 8 9 10 9 8 7 7 7 6 5 5 5 5 6 7 7 8 8 8 8 8 8 8 8 8 8 8 7 7 7 7 7 7
3 3 3 3 3 3 5 5 6 6 6 7 8 9 7 6 6 5 5 4 4 4 4 5 5 6 6 7 7 7 7 7 7 7 7 7 7 7 7 7 7 7 6 6
2 2 3 3 3 3 3 3 4 5 5 6 8 8 6 6 5 4 4 3 3 3 3 4 5 5 6 6 6 6 6 6 7 7 7 7 7 7 7 7 7 6 6 6
2 1 2 3 3 3 2 3 3 4 5 6 7 7 6 5 5 4 3 3 3 2 3 3 4 4 5 5 6 6 6 6 6 6 6 6 6 6 6 6 6 6 6 5
1 1 1 2 2 3 3 3 3 3 5 5 6 6 6 5 4 3 2 2 2 2 2 2 3 4 4 4 5 5 6 6 6 6 6 6 6 6 6 6 5 5 5 5
-0 1 1 1 2 2 2 3 3 3 3 4 4 4 4 3 3 2 2 2 2 1 1 2 3 3 4 4 5 5 5 5 5 5 5 5 5 5 5 5 5 5 5 4
-0 -0 1 2 2 2 2 2 2 2 3 3 4 4 3 2 2 2 1 1 1 1 1 2 2 3 4 4 4 4 4 5 5 5 5 5 5 4 4 4 4 4 4 4
-1 -1 0 1 2 2 2 1 1 1 1 2 2 2 2 2 1 0 0 1 1 1 1 2 3 3 3 3 4 4 4 4 4 4 4 4 4 4 4 4 4 4 3 3
-1 -0 0 1 2 2 2 1 0 0 1 0 1 1 1 0 1 1 -0 0 0 0 1 2 2 2 3 3 3 3 3 3 3 3 3 3 3 3 3 3 3 3 3 3
-1 -1 -0 0 1 1 1 0 -1 0 1 0 -1 -0 -0 -0 2 2 -0 -0 -0 0 1 1 2 2 2 2 2 3 3 3 3 3 3 3 3 3 3 3 3 2 2 2
-1 -1 -1 -0 1 1 -0 -1 -0 1 1 -1 -2 -1 -1 -0 0 -1 -1 -1 -1 -0 0 1 1 1 1 2 2 2 2 2 2 2 2 2 2 2 2 2 2 2 2 2
-1 -1 -1 -1 0 0 -1 -1 -1 -1 -2 -2 -2 -2 -2 -2 -2 -2 -2 -2 -2 -1 -1 -0 0 0 1 1 1 2 2 2 2 2 2 2 2 2 2 2 2 2 1 1
-2 -2 -1 -1 -0 -1 -3 -3 -3 -3 -3 -3 -3 -3 -3 -3 -3 -3 -3 -3 -2 -2 -1 -1 -0 -0 -0 0 0 1 1 1 1 1 1 1 1 1 1 1 1 1 1 1
-3 -4 -3 -3 -2 -2 -3 -4 -4 -4 -4 -4 -4 -3 -3 -3 -4 -3 -3 -3 -3 -2 -2 -2 -1 -1 -1 -0 -0 0 0 0 0 0 0 0 0 0 0 0 0 0 0 0
-3 -4 -3 -3 -2 -3 -3 -4 -4 -4 -4 -4 -4 -4 -4 -4 -4 -4 -4 -3 -3 -3 -3 -2 -2 -1 -1 -1 -1 -1 -1 -0 -0 -0 -0 -0 -0 -0 -0 -0 -0 -0 -0 -1
-4 -4 -3 -2 -3 -4 -4 -5 -5 -5 -5 -4 -4 -4 -4 -4 -4 -4 -4 -4 -4 -3 -3 -3 -2 -2 -2 -1 -1 -1 -1 -1 -1 -1 -1 -1 -1 -1 -1 -1 -1 -1 -1 -1
Wind_Speed
7 9 14 16 17 12 11 14 14 11 6 10 15 16 13 10 10 11 11 11 11 12 10 9 10 11 12 13 14 14 13 12 10 8 7 6 6 5 4 4 5 5 4 4
6 13 14 12 12 10 11 12 12 7 5 8 11 15 14 13 14 13 13 13 13 11 10 9 10 11 13 14 14 14 14 13 12 9 7 5 5 4 4 4 4 4 4 4
10 7 9 11 12 13 13 13 12 7 5 6 7 12 15 11 12 11 12 12 11 11 11 11 11 12 13 14 14 13 14 14 13 11 7 6 5 4 4 4 4 4 5 4
7 6 8 11 12 12 12 10 9 8 7 6 7 8 11 10 10 11 11 10 11 10 10 10 10 11 13 13 13 14 14 14 13 12 10 11 8 7 6 6 5 5 5 5
5 7 10 12 11 10 6 5 8 10 9 7 9 8 9 8 11 11 10 9 8 8 9 9 10 10 11 11 12 12 13 13 13 12 12 12 9 7 5 6 6 5 5 4
4 3 6 8 7 8 5 3 2 5 7 10 13 12 9 7 10 9 8 7 7 7 6 7 7 8 8 9 10 11 13 13 13 12 12 12 11 9 8 8 7 5 4 4
2 2 1 2 4 7 7 6 4 6 7 9 9 10 9 4 5 7 7 6 5 5 5 5 5 7 8 9 10 12 13 13 13 13 12 11 11 10 10 9 8 6 5 4
3 4 3 2 5 7 10 10 7 6 8 6 7 11 5 2 2 3 3 3 2 2 3 4 5 6 7 9 10 11 13 13 13 12 11 10 10 8 7 8 7 7 5 4
2 3 2 3 3 7 8 8 3 2 3 5 7 6 5 4 3 2 1 1 1 1 2 2 3 4 6 8 10 12 12 12 12 12 11 10 9 8 8 7 6 5 4 4
1 2 2 1 1 1 5 5 4 5 5 6 7 9 6 4 3 1 1 2 2 2 2 1 2 3 4 6 8 10 11 11 11 11 10 8 9 8 7 7 6 6 5 4
1 1 1 1 3 5 4 5 3 4 4 5 5 4 0 3 1 3 3 3 3 2 2 2 1 2 3 5 7 8 9 10 9 9 9 8 8 7 7 6 6 5 5 5
2 1 1 3 3 3 3 6 5 5 4 4 4 2 3 2 3 3 4 4 3 3 2 1 0 1 3 4 6 7 8 9 9 8 8 8 7 7 7 6 6 5 5 4
1 0 0 0 0 1 1 2 3 3 3 5 6 2 2 3 4 4 3 4 3 3 3 2 1 1 2 3 4 6 8 8 8 8 8 8 7 7 6 6 6 5 5 4
2 0 3 4 3 3 3 4 4 4 6 7 8 6 3 4 4 4 4 3 3 3 3 3 2 1 1 2 3 6 7 7 8 8 8 7 7 7 6 6 5 5 5 4
2 1 1 4 5 4 4 5 6 6 7 7 8 7 5 4 3 3 3 2 2 3 3 3 3 2 1 1 3 4 6 7 7 8 7 7 6 6 6 5 5 5 4 4
3 1 2 3 4 4 4 4 5 6 6 7 6 7 3 3 2 2 2 2 2 2 3 3 3 3 2 1 2 4 5 6 7 7 7 6 6 6 6 5 5 5 4 4
2 1 2 2 4 3 3 2 3 4 4 5 8 6 2 3 3 3 2 2 2 2 3 3 2 2 2 1 2 4 5 6 7 7 6 6 6 6 5 5 5 5 4 4
1 1 1 2 2 3 1 3 2 2 2 3 5 5 4 4 4 3 2 1 2 3 3 3 3 2 2 1 2 4 5 6 6 6 6 6 6 6 5 5 5 4 4 3
2 2 1 1 3 4 1 3 4 2 3 4 5 5 4 3 3 2 2 2 3 3 3 2 2 1 1 1 2 4 5 6 6 6 5 5 6 6 6 5 4 4 3 3
2 0 1 2 3 3 2 5 7 4 3 5 6 6 5 3 2 3 3 5 4 3 2 2 2 2 2 2 3 5 5 5 5 4 4 5 5 6 5 5 4 3 3 3
2 1 2 3 3 3 4 6 4 2 3 7 7 6 5 4 4 3 3 4 3 3 3 3 3 3 3 3 4 5 5 4 4 4 4 4 4 5 5 4 4 3 3 3
2 1 1 2 3 2 5 4 2 5 7 6 6 6 6 4 3 2 2 3 3 3 3 3 3 4 3 3 4 5 4 3 4 4 5 4 4 4 4 5 4 3 3 3
2 2 2 3 3 4 4 4 6 6 6 6 6 6 4 2 2 2 2 2 2 3 3 3 4 4 4 3 3 5 4 3 4 5 5 5 5 4 4 4 4 3 3 2
1 1 3 4 5 6 6 6 5 6 6 6 5 4 3 2 2 2 2 2 2 3 3 3 4 4 4 4 4 4 4 4 5 5 5 5 5 4 4 3 3 3 2 2
3 2 3 4 6 6 4 5 7 6 5 5 4 3 2 1 2 2 2 2 2 2 3 3 3 3 4 4 4 4 3 4 5 5 5 5 4 4 4 3 2 2 1 1
2 3 3 4 3 4 6 7 6 5 5 5 4 4 4 2 2 2 2 2 2 2 3 3 4 4 4 4 4 3 3 3 5 5 4 3 3 3 3 3 3 3 2 2
Wind_Direction
189 201 207 205 209 229 221 221 226 229 224 223 234 243 244 239 238 237 233 227 225 224 216 205 201 193 188 187 185 182 179 175 169 167 168 169 174 170 164 153 155 155 153 153
195 215 213 210 212 220 218 221 225 229 219 231 243 250 250 243 241 239 239 235 229 224 215 205 198 191 190 188 187 185 184 181 180 179 175 176 167 171 165 155 157 160 161 160
211 213 203 204 210 215 221 223 221 219 228 234 254 254 239 235 236 240 241 240 235 226 219 211 203 198 194 192 191 188 187 185 183 177 164 149 145 152 166 172 171 173 172 169
218 214 201 205 212 213 225 221 218 209 212 227 221 253 234 224 231 235 236 234 233 229 224 218 208 203 199 197 191 190 187 184 183 177 175 172 178 181 187 182 177 175 177 173
212 204 203 208 212 213 220 209 217 221 225 240 228 243 247 219 232 230 229 229 230 226 221 218 213 206 202 196 190 189 185 183 182 183 183 183 186 183 172 170 173 175 176 176
233 224 213 218 217 197 159 146 186 216 219 233 222 223 247 219 225 229 232 235 234 225 218 216 211 201 197 190 186 186 184 183 182 184 187 189 185 175 169 174 176 179 179 180
227 218 208 183 178 179 181 172 178 195 206 227 200 220 243 228 240 239 238 238 233 221 213 210 206 198 192 186 183 185 185 183 182 183 188 191 187 181 180 181 183 183 185 189
205 215 204 219 210 200 205 202 207 210 212 218 200 226 234 228 236 236 252 257 237 221 208 208 206 199 193 189 184 183 186 184 181 183 187 189 187 185 186 186 185 190 194 194
232 234 271 274 269 199 192 211 241 248 239 228 216 232 240 225 221 216 251 328 321 262 224 216 206 197 193 190 187 185 183 182 182 183 183 185 185 185 184 184 185 188 189 187
300 262 283 290 237 244 210 186 195 202 199 220 219 230 221 200 225 228 281 308 319 319 316 286 224 200 191 188 185 184 182 180 179 179 180 180 183 184 182 181 181 180 181 181
321 239 282 269 220 218 192 199 211 204 242 235 223 221 61 224 263 270 286 312 322 323 315 304 269 201 179 172 174 177 179 175 173 175 175 173 175 177 176 177 177 175 173 177
340 250 261 289 308 313 236 215 204 209 214 241 251 240 15 325 328 319 323 338 341 346 345 348 358 160 158 162 168 172 175 173 171 169 169 168 166 166 170 171 169 166 168 173
317 162 220 226 224 353 313 283 243 226 222 229 235 228 37 358 351 343 340 347 354 2 11 28 54 107 147 159 168 171 171 169 165 163 162 160 162 164 165 164 161 160 162 164
342 210 235 241 283 268 276 275 255 220 227 232 242 251 292 327 339 345 348 350 4 15 23 34 41 58 105 147 164 167 165 162 158 158 158 159 163 163 162 159 156 158 159 160
1 277 278 290 289 269 261 258 242 231 234 239 246 254 276 321 327 341 352 0 14 19 14 19 24 28 53 115 145 154 156 154 155 155 155 157 157 154 152 150 149 149 152 154
357 302 285 295 302 302 289 275 250 245 245 250 263 272 316 328 346 346 344 352 353 360 357 359 7 15 23 80 138 149 154 154 155 154 153 150 148 148 148 146 144 143 142 141
319 308 289 282 321 294 260 278 252 249 242 238 246 270 321 320 313 308 302 304 317 334 332 331 336 348 356 12 147 154 155 151 150 149 148 147 148 149 148 144 142 143 143 140
238 277 277 286 303 239 37 23 322 276 287 274 286 299 281 291 299 308 315 302 327 332 325 320 322 336 349 22 130 139 140 144 145 146 148 149 150 149 147 145 144 146 148 147
241 225 244 240 257 278 311 1 350 307 292 336 305 306 324 337 318 315 351 333 328 324 322 325 326 334 13 69 134 135 135 137 139 143 149 154 154 150 150 150 150 150 151 149
36 244 233 238 249 261 341 345 329 292 274 7 337 314 319 320 271 294 350 347 342 345 356 12 31 46 61 79 117 128 133 136 141 147 148 152 154 153 153 153 151 150 148 150
339 330 243 247 251 268 348 333 320 250 316 333 322 311 301 287 296 315 331 345 357 7 16 34 51 54 58 80 108 118 122 131 139 137 135 138 146 148 146 144 144 144 141 139
292 277 253 249 239 264 3 346 321 318 322 315 317 310 306 312 329 334 351 3 14 23 30 43 60 55 52 73 104 110 109 114 125 127 126 127 129 132 136 134 135 137 138 136
255 280 284 253 269 321 320 315 317 319 315 319 319 313 308 313 330 346 354 2 16 26 39 52 68 65 54 60 90 105 99 107 118 119 118 118 116 116 123 129 132 131 134 138
257 277 250 268 278 303 310 317 324 326 320 321 320 319 317 319 337 350 357 8 22 35 46 56 70 67 55 55 70 87 99 107 113 113 112 113 113 109 106 110 120 128 135 140
283 259 250 261 289 307 310 329 331 330 332 338 344 345 340 0 3 360 5 11 31 40 42 54 66 68 59 57 63 78 95 109 113 112 110 108 107 108 103 97 97 109 109 135
235 236 252 269 301 297 306 325 329 327 335 344 356 5 7 9 8 16 23 30 40 46 49 56 59 64 61 60 59 62 85 107 114 113 112 110 108 105 105 102 89 74 79 60
Height
1466 1466 1463 1462 1464 1464 1464 1465 1466 1468 1473 1474 1472 1470 1471 1474 1475 1475 1476 1477 1478 1480 1482 1484 1487 1489 1492 1495 1498 1502 1505 1508 1511 1513 1515 1517 1519 1521 1523 1524 1525 1526 1526 1527
1464 1461 1460 1462 1465 1467 1467 1466 1466 1470 1473 1473 1470 1468 1468 1470 1470 1471 1472 1473 1474 1476 1478 1480 1482 1485 1487 1491 1494 1497 1501 1504 1507 1510 1513 1515 1517 1519 1520 1521 1522 1523 1524 1524
1458 1458 1460 1463 1464 1466 1466 1466 1465 1468 1473 1473 1472 1464 1462 1464 1467 1468 1468 1469 1471 1472 1473 1475 1478 1480 1483 1486 1489 1493 1496 1500 1504 1507 1510 1512 1514 1516 1517 1519 1520 1521 1522 1522
1458 1459 1461 1461 1462 1464 1464 1464 1466 1468 1470 1468 1470 1462 1453 1457 1461 1463 1464 1465 1466 1468 1469 1471 1473 1475 1478 1481 1485 1489 1492 1496 1500 1503 1505 1508 1510 1512 1514 1516 1517 1518 1519 1520
1458 1459 1459 1459 1460 1463 1463 1466 1467 1467 1467 1469 1468 1468 1449 1455 1455 1456 1459 1461 1462 1464 1465 1466 1468 1471 1474 1477 1481 1484 1488 1492 1495 1499 1502 1505 1507 1510 1512 1513 1514 1515 1516 1517
1459 1460 1460 1459 1460 1463 1466 1468 1469 1468 1467 1469 1460 1461 1446 1448 1449 1451 1455 1457 1458 1459 1461 1463 1464 1467 1470 1473 1476 1480 1483 1487 1491 1494 1498 1501 1503 1506 1508 1510 1511 1513 1514 1514
1459 1459 1460 1461 1461 1463 1464 1465 1467 1466 1464 1455 1454 1455 1444 1446 1449 1451 1453 1454 1455 1456 1458 1459 1460 1462 1465 1468 1471 1475 1479 1482 1486 1490 1493 1497 1500 1502 1505 1507 1508 1509 1510 1511
1459 1457 1459 1460 1459 1459 1461 1460 1459 1456 1451 1447 1455 1449 1443 1448 1450 1452 1453 1453 1454 1454 1455 1456 1457 1459 1461 1464 1467 1470 1474 1478 1482 1485 1489 1493 1496 1499 1501 1504 1505 1507 1508 1509
1460 1458 1460 1461 1460 1458 1459 1458 1459 1458 1454 1451 1446 1444 1445 1448 1449 1450 1451 1452 1452 1452 1453 1453 1454 1456 1458 1461 1463 1466 1470 1474 1478 1481 1485 1489 1492 1495 1498 1500 1502 1504 1505 1506
1464 1464 1461 1461 1460 1459 1458 1459 1460 1458 1453 1444 1440 1439 1436 1443 1444 1448 1449 1450 1451 1451 1451 1452 1452 1454 1455 1458 1460 1464 1467 1470 1474 1478 1481 1485 1489 1492 1495 1497 1499 1500 1501 1503
1466 1465 1463 1462 1460 1458 1460 1461 1457 1454 1452 1443 1439 1436 1441 1443 1446 1447 1448 1450 1450 1450 1450 1450 1451 1452 1454 1456 1458 1461 1464 1467 1471 1475 1478 1482 1485 1489 1491 1494 1495 1497 1499 1500
1467 1464 1463 1464 1465 1464 1460 1457 1457 1456 1455 1450 1441 1443 1447 1448 1449 1449 1450 1450 1450 1450 1450 1450 1450 1451 1452 1454 1456 1458 1461 1465 1468 1472 1476 1479 1482 1485 1488 1490 1492 1494 1496 1497
1467 1466 1462 1460 1465 1465 1463 1462 1459 1458 1455 1449 1444 1444 1449 1450 1450 1450 1450 1449 1449 1449 1449 1449 1449 1450 1451 1452 1454 1456 1459 1462 1466 1470 1473 1476 1479 1482 1485 1487 1489 1491 1493 1494
1467 1467 1464 1459 1457 1460 1463 1462 1461 1458 1453 1448 1444 1443 1448 1450 1451 1451 1451 1451 1450 1449 1449 1449 1448 1449 1450 1451 1453 1455 1457 1461 1464 1467 1470 1473 1476 1479 1482 1484 1486 1488 1490 1491
1469 1467 1467 1464 1462 1461 1460 1460 1459 1457 1452 1449 1445 1447 1448 1452 1453 1453 1452 1451 1450 1449 1448 1448 1448 1448 1449 1450 1452 1454 1456 1459 1462 1465 1468 1471 1474 1477 1479 1482 1484 1485 1487 1488
1472 1470 1467 1464 1461 1460 1460 1459 1458 1457 1455 1453 1452 1452 1453 1455 1455 1454 1452 1451 1450 1449 1449 1448 1448 1448 1449 1450 1451 1453 1455 1458 1461 1463 1466 1469 1472 1475 1477 1479 1481 1483 1484 1486
1473 1473 1467 1461 1461 1458 1457 1460 1459 1458 1456 1455 1452 1452 1455 1454 1454 1453 1452 1451 1451 1450 1449 1448 1448 1448 1448 1449 1450 1452 1455 1457 1460 1462 1465 1468 1470 1473 1475 1477 1479 1481 1482 1483
1475 1474 1470 1464 1462 1460 1461 1462 1462 1460 1458 1458 1456 1455 1455 1455 1454 1453 1452 1451 1450 1450 1448 1447 1447 1447 1448 1449 1450 1452 1454 1456 1458 1461 1463 1466 1469 1471 1473 1475 1477 1479 1480 1481
1474 1473 1469 1465 1460 1456 1460 1463 1463 1462 1458 1459 1458 1456 1456 1455 1453 1451 1451 1451 1450 1449 1448 1447 1447 1447 1447 1448 1449 1451 1453 1455 1457 1460 1462 1465 1467 1469 1471 1474 1475 1477 1479 1480
1475 1474 1471 1467 1462 1458 1461 1465 1463 1462 1455 1459 1458 1456 1455 1454 1450 1450 1451 1450 1449 1448 1447 1447 1446 1446 1447 1447 1449 1450 1452 1454 1456 1459 1461 1464 1466 1468 1470 1472 1474 1476 1477 1478
1475 1473 1472 1467 1463 1459 1466 1466 1463 1460 1458 1460 1458 1457 1455 1454 1452 1452 1450 1449 1448 1447 1447 1447 1446 1446 1447 1447 1449 1450 1452 1454 1456 1458 1461 1463 1465 1467 1469 1471 1473 1474 1475 1476
1475 1472 1472 1469 1464 1465 1467 1466 1465 1464 1462 1460 1458 1457 1455 1453 1452 1450 1449 1448 1448 1447 1447 1447 1446 1446 1447 1448 1449 1450 1451 1454 1456 1458 1460 1462 1464 1466 1468 1470 1471 1473 1474 1475
1478 1478 1473 1472 1470 1469 1468 1467 1466 1464 1462 1460 1458 1456 1454 1452 1451 1450 1449 1448 1447 1447 1447 1447 1447 1447 1448 1449 1450 1451 1452 1454 1456 1458 1459 1461 1463 1465 1467 1469 1470 1471 1472 1473
1478 1480 1477 1474 1469 1469 1468 1466 1464 1463 1461 1459 1457 1455 1453 1451 1450 1449 1449 1448 1447 1447 1447 1447 1447 1447 1448 1449 1450 1452 1453 1455 1456 1458 1459 1461 1463 1465 1466 1468 1469 1470 1470 1470
1478 1478 1475 1472 1470 1468 1466 1465 1463 1461 1459 1458 1456 1454 1453 1451 1450 1450 1449 1448 1448 1447 1447 1448 1448 1448 1449 1450 1451 1452 1454 1455 1456 1458 1460 1461 1463 1464 1465 1467 1468 1468 1469 1469
1477 1476 1474 1469 1470 1470 1467 1465 1463 1461 1459 1457 1455 1453 1453 1452 1450 1450 1449 1449 1448 1448 1448 1448 1448 1449 1449 1450 1452 1453 1454 1456 1457 1458 1460 1461 1463 1464 1465 1466 1466 1467 1468 1468